Tracking 19489 objects as of 22-Jan-2019
HD Live streaming from Space Station
objects crossing your sky now

FENGYUN 1C DEB

Track FENGYUN 1C DEB now!
10-day predictions


NORAD ID: 31643
Int'l Code: 1999-025CAZ
Perigee: 834.5 km
Apogee: 983.6 km
Inclination: 98.3 °
Period: 103.0 minutes
Semi major axis: 7280 km
RCS: 0.0065 m2 (small)
Launch date: May 10, 1999
Source: People's Republic of China (PRC)
Launch site: Taiyaun Space Center, China (TSC)

Note: This is SATELLITE DEBRIS
aabbcc
Your satellite tracking list
Your tracking list is empty




NASA's NSSDC Master Catalog

Two Line Element Set (TLE):
1 31643U 99025CAZ 18360.26630883  .00000127  00000-0  11271-3 0  9991
2 31643  98.3337 358.8636 0102434 261.5754 163.9482 13.97660714592929
Source of the keplerian elements: AFSPC